Regional Weather Roundup
Issued by NWS Huntsville, AL

Home | Current Version | Previous Version | Text Only | Print | Product List | Glossary On
Versions: 1 2 3 4 5 6 7 8 9 10 11 12 13 14 15 16 17 18 19 20 21 22 23 24 25 26 27
000
ASUS44 KHUN 290910
RWRHUN

WEATHER ROUNDUP FOR THE TENNESSEE VALLEY
NATIONAL WEATHER SERVICE HUNTSVILLE AL
400 AM CDT THU JUN 29 2017

ALZ001>004-291000-
NORTHWEST ALABAMA

CITY           SKY/WX    TMP DP  RH WIND       PRES   REMARKS
COURTLAND HCN    N/A     68 N/A N/A CALM        N/A
RUSSELLVILLE     N/A     68 N/A N/A MISG        N/A
SHOALS AIRPORT PTCLDY    70  65  84 SE3       30.07S
SHOALS TVA RES   N/A     70 N/A N/A MISG        N/A
$$

ALZ005>007-016-291000-
NORTH CENTRAL ALABAMA

CITY           SKY/WX    TMP DP  RH WIND       PRES   REMARKS
CULLMAN AG STN   N/A     68 N/A N/A CALM        N/A
DECATUR AP     PTCLDY    68  66  93 CALM      30.08S
HUNTSVILLE AP  MOCLDY    72  68  87 SE5       30.08S
MERIDIANVILLE  CLOUDY    72  63  73 CALM      30.09S
REDSTONE ARSN  MOCLDY    73  66  78 S6        30.08R
VINEMONT AP    FAIR      71  65  80 SE5       30.12R
$$

ALZ008>010-291000-
NORTHEAST ALABAMA

CITY           SKY/WX    TMP DP  RH WIND       PRES   REMARKS
ALBERTVILLE    MOCLDY    70  70 100 SE5       30.11S
FORT PAYNE     CLOUDY    72  63  73 CALM      30.12S
SCOTTSBORO AP  CLOUDY    70  66  88 CALM      30.11S
SCOTTSBORO HCN   N/A     68 N/A N/A MISG        N/A
VALLEY HEAD      N/A     72 N/A N/A MISG        N/A
$$

TNZ076-096-097-291000-
SOUTHEASTERN MIDDLE TENNESSEE

CITY           SKY/WX    TMP DP  RH WIND       PRES   REMARKS
TULLAHOMA      CLEAR     70  61  73 E5        30.11S
WINCHESTER     CLEAR     72  63  73 SE5       30.11F
$$

...SURROUNDING SITES...

CITY           SKY/WX    TMP DP  RH WIND       PRES   REMARKS
ATLANTA        CLOUDY    72  66  81 E6        30.16R
ANNISTON       MOCLDY    75  68  78 SE7       30.11R
BIRMINGHAM     CLOUDY    75  69  81 SE5       30.11R
CHATTANOOGA    PTCLDY    70  64  81 CALM      30.14R
CORINTH        FAIR      70  66  88 SE5       30.03S
DALTON         CLOUDY    70  64  83 SE6       30.15S
GADSDEN        CLOUDY    76  68  76 SE6       30.11R
GOLDEN TRNGL   CLOUDY    73  66  78 SE7       29.99S
JACKSON TN     PTCLDY    72  68  87 S5        30.01R
MEMPHIS        PTCLDY    73  70  90 S9        29.99S
NASHVILLE      CLOUDY    71  62  73 SE5       30.06S
OXFORD MS      FAIR      68  66  94 SE5       30.04R
ROME           MOCLDY    71  67  87 CALM      30.13R
SAVANNAH       CLEAR     73  68  83 S9        30.03S
SELMER         CLEAR     72  68  88 S8        30.03S
TUPELO         PTCLDY    72  68  87 E3        30.03S
TUSCALOOSA     CLOUDY    74  72  93 NE3       30.05S
$$

...GULF COAST WEATHER...

CITY           SKY/WX    TMP DP  RH WIND       PRES   REMARKS
GULFPORT       RAIN      76  74  93 MISG      29.97R FOG
PASCAGOULA     MOCLDY    76  69  79 S8        29.98F
MOBILE         CLOUDY    76  74  93 SE7       30.01F
GULF SHORES    CLOUDY    78  76  94 SE6       30.01S
PENSACOLA      CLOUDY    80  72  76 SE7       30.02R
DESTIN         MOCLDY    78  78 100 E5        30.04R
PANAMA CITY    CLOUDY    77  73  88 NE3       30.05R
APPALACHICOLA  CLOUDY    81  79  94 SE8       30.03S HX  90
$$





USA.gov is the U.S. government's official web portal to all federal, state and local government web resources and services.